Weather History for Laramie, WY

Change the Weather History Date:

Monday, April 29, 2013

  Actual Average Record
Temperature  
Mean Temperature 51 °F 42 °F  
Max Temperature 67 °F 56 °F 75 °F (1992)
Min Temperature 34 °F 28 °F 6 °F (2005)
Degree Days  
Heating Degree Days 14 23  
Month to date heating degree days 950 792  
Since 1 July heating degree days 7915 8027  
Cooling Degree Days 0 0  
Month to date cooling degree days 0 0  
Year to date cooling degree days 0 0  
Moisture  
Dew Point 22 °F    
Average Humidity 44    
Maximum Humidity 75    
Minimum Humidity 13    
Precipitation  
Precipitation 0.00 in 0.04 in 0.44 in (2001)
Month to date precipitation 0.47 1.02  
Year to date precipitation 1.38 2.21  
Sea Level Pressure  
Sea Level Pressure 29.59 in    
Wind  
Wind Speed 21 mph (WSW)    
Max Wind Speed 39 mph    
Max Gust Speed 49 mph    
Visibility 10 miles    
Events      
T = Trace of Precipitation, MM = Missing Value Source: NWS Daily Summary

Daily Weather History Graph

Daily Weather History Graph

Search for Another Location

Airport:

Trip Planner

Search our weather history database for the weather conditions in past years. The results will help you decide how hot, cold, wet, or windy it might be!

Date:

Astronomy

Apr. 29, 2013 Rise Set
Actual Time 6:02 AM MDT 7:58 PM MDT
Civil Twilight 5:32 AM MDT 8:28 PM MDT
Nautical Twilight 4:56 AM MDT 9:04 PM MDT
Astronomical Twilight 4:16 AM MDT 9:44 PM MDT
Moon No Moon Rise 9:24 AM MDT (4/29)
Length of Visible Light 14h 55m
Length of Day
13h 55m
Waning Gibbous, 79% of the Moon is Illuminated
Apr 29
Waning Gibbous
May 2
Last Quarter
May 9
New
May 17
First Quarter
May 24
Full

Hourly Weather History & Observations

Time (MDT) Temp. Windchill Dew Point Humidity Pressure Visibility Wind Dir Wind Speed Gust Speed Precip Events Conditions
12:53 AM 43.0 °F 37.2 °F 32.0 °F 65% 29.74 in 10.0 mi WSW 10.4 mph - N/A   Overcast
1:53 AM 43.0 °F 36.4 °F 32.0 °F 65% 29.72 in 10.0 mi WSW 12.7 mph - N/A   Mostly Cloudy
2:53 AM 36.0 °F 29.0 °F 28.9 °F 76% 29.73 in 10.0 mi West 9.2 mph - N/A   Clear
3:53 AM 37.0 °F 28.5 °F 28.0 °F 70% 29.70 in 10.0 mi WSW 13.8 mph - N/A   Clear
4:53 AM 36.0 °F 29.0 °F 28.0 °F 73% 29.71 in - West 9.2 mph - N/A   Clear
5:53 AM 37.0 °F 29.8 °F 28.9 °F 73% 29.69 in - South 10.4 mph - N/A   Clear
6:53 AM 45.0 °F 37.9 °F 27.0 °F 49% 29.66 in - SW 16.1 mph - N/A   Clear
7:53 AM 51.1 °F - 25.0 °F 36% 29.65 in 10.0 mi WSW 12.7 mph - N/A   Clear
8:53 AM 52.0 °F - 19.9 °F 28% 29.63 in 10.0 mi West 31.1 mph 39.1 mph N/A   Clear
9:53 AM 57.0 °F - 18.0 °F 22% 29.64 in 10.0 mi WSW 25.3 mph 33.4 mph N/A   Clear
10:53 AM 61.0 °F - 16.0 °F 17% 29.59 in 10.0 mi WSW 34.5 mph 42.6 mph N/A   Clear
11:53 AM 64.0 °F - 14.0 °F 14% 29.58 in 10.0 mi WSW 31.1 mph 41.4 mph N/A   Clear
12:53 PM 62.1 °F - 15.1 °F 16% 29.59 in 10.0 mi West 21.9 mph 36.8 mph N/A   Clear
1:53 PM 64.9 °F - 17.1 °F 16% 29.53 in 10.0 mi WSW 29.9 mph 39.1 mph N/A   Clear
2:53 PM 62.1 °F - 18.0 °F 18% 29.57 in 10.0 mi WSW 26.5 mph 40.3 mph N/A   Clear
3:53 PM 63.0 °F - 19.0 °F 18% 29.55 in 10.0 mi WSW 24.2 mph 32.2 mph N/A   Clear
4:53 PM 63.0 °F - 18.0 °F 18% 29.52 in 10.0 mi WSW 31.1 mph 42.6 mph N/A   Clear
5:53 PM 61.0 °F - 17.1 °F 18% 29.52 in 10.0 mi WSW 25.3 mph 35.7 mph N/A   Clear
6:53 PM 61.0 °F - 18.0 °F 19% 29.46 in 10.0 mi WSW 32.2 mph 49.5 mph N/A   Clear
7:53 PM 59.0 °F - 18.0 °F 20% 29.45 in 10.0 mi West 25.3 mph 35.7 mph N/A   Clear
8:53 PM 55.9 °F - 19.9 °F 25% 29.48 in 10.0 mi WSW 13.8 mph - N/A   Clear
9:53 PM 48.9 °F - 21.9 °F 35% 29.50 in 10.0 mi SW 3.5 mph - N/A   Clear
10:53 PM 51.1 °F - 21.9 °F 32% 29.47 in 10.0 mi West 13.8 mph - N/A   Clear
11:53 PM 52.0 °F - 21.9 °F 31% 29.45 in 10.0 mi West 23.0 mph - N/A   Clear